[[{"header":{"parameterUnit":"m.s-1","parameterCategory":1,"la1":30.2991,"la2":30.254,"lo1":-89.0895,"lo2":-89.0444,"dy":0.0017,"dx":0.0017,"nx":28,"ny":28,"refTime":"2024-02-24T09:00:00:Z","depth":0,"parameterNumber":2,"parameterNumberName":"U-component_of_WINDS"},"data":[0,0,0,0,0,0,0,0,0,0,0,0,0,0,0,0,0,0,0,0,0,0,0,0,0,0,0,0,0,0,0,0,0,0,0,0,0,0,0,0,0,0,0,0,0,0,0,0,0,0,0,0,0,0,0,0,0,0,2.3303,2.3303,0,2.3322,2.3322,2.3322,2.3288,2.3287,2.3286,2.3285,2.3303,2.3305,2.3306,0,0,0,0,0,0,0,0,0,0,0,0,0,2.3236,2.3238,2.3303,2.3303,2.3303,2.3322,2.3322,2.3322,2.3289,2.3287,2.3286,2.3285,2.3303,2.3305,2.3307,0,0,0,0,0,0,0,0,0,0,0,0,0,2.3261,2.3238,2.3303,2.3289,2.3288,2.3322,2.3322,2.3322,2.3289,2.3287,2.3286,2.3284,2.3302,2.3305,2.3307,2.3355,0,0,2.3314,2.3315,0,0,0,0,0,0,0,0,2.326,2.3264,2.329,2.329,2.3289,2.3301,2.3305,2.3333,2.3289,2.3288,2.3285,2.3283,2.3304,2.3306,2.3313,2.3356,2.3357,2.3314,2.3316,2.3316,2.3317,0,0,0,0,0,0,0,2.3258,2.3263,2.331,2.3291,2.329,2.3281,2.3283,2.331,2.3305,2.3288,2.3286,2.3289,2.3303,2.3311,2.3313,2.3357,2.3314,2.3316,2.3318,2.3318,2.3439,2.3441,0,0,0,0,0,0,2.3258,2.3261,2.3309,2.3311,2.327,2.3284,2.3286,2.3299,2.3305,2.3304,2.329,2.3287,2.3308,2.3311,2.3314,2.337,2.3316,2.3319,2.332,2.3438,2.344,2.3442,0,0,0,0,0,0,2.3257,2.3263,2.3309,2.3285,2.3291,2.3287,2.3302,2.33,2.3308,2.3306,2.3305,2.3299,2.3307,2.3311,2.3345,2.337,2.332,2.3322,2.3435,2.3438,2.3441,2.3484,0,0,0,0,0,0,2.3255,2.3263,2.3281,2.3286,2.3292,2.334,2.3303,2.3302,2.3312,2.3308,2.3315,2.3314,2.3306,2.3342,2.3347,2.3373,2.3324,2.3433,2.3437,2.344,2.348,2.3488,2.3494,0,0,0,0,0,2.3253,2.3292,2.3282,2.3288,2.3315,2.3341,2.3345,2.3335,2.3314,2.3333,2.3332,2.3314,2.3367,2.3346,2.3351,2.3378,2.3431,2.3436,2.344,2.3477,2.3486,2.3494,0,0,0,0,0,0,2.329,2.3293,2.3282,2.3324,2.3333,2.3336,2.3358,2.3345,2.3359,2.3355,2.3342,2.3344,2.338,2.3383,2.3359,2.3425,2.3396,2.3401,2.3422,2.3431,2.3438,2.3436,2.3325,0,0,0,0,0,2.3303,2.3325,2.3326,2.3363,2.3368,2.3363,2.3374,2.3365,2.3374,2.3377,2.3379,2.3388,2.3406,2.3419,2.3436,2.348,2.3481,2.3501,2.3509,2.3514,2.3519,2.3542,2.3551,2.3455,2.3455,2.3455,0,0,2.333,2.3334,2.3349,2.337,2.3376,2.3398,2.3366,2.3391,2.3407,2.3381,2.3413,2.3415,2.3424,2.3463,2.3481,2.3466,2.3546,2.352,2.3524,2.3526,2.3548,2.3557,2.3565,2.3458,2.3458,2.3457,0,0,2.3391,2.3396,2.3428,2.3434,2.3444,2.344,2.3448,2.3453,2.3453,2.3486,2.3467,2.3486,2.3518,2.3525,2.3533,2.3597,2.3581,2.3603,2.3639,2.3662,2.367,2.3676,2.3699,2.3707,2.3607,2.3608,2.3608,0,2.3423,2.3456,2.3445,2.3472,2.3482,2.346,2.3491,2.3498,2.3512,2.352,2.3503,2.3543,2.3548,2.3589,2.3604,2.3612,2.3619,2.3602,2.367,2.3676,2.3682,2.3703,2.3712,2.361,2.361,2.361,2.3609,0,2.3495,2.3519,2.3543,2.3558,2.357,2.3599,2.3592,2.3606,2.3597,2.3595,2.3628,2.3633,2.365,2.366,2.365,2.3699,2.369,2.3672,2.3642,2.3694,2.3714,2.3722,2.3614,2.3613,2.3612,2.3612,0,0,2.3579,2.3588,2.3597,2.3604,2.3613,2.363,2.3658,2.3676,2.3688,2.3699,2.3721,2.3749,2.3733,2.3742,2.3733,2.3754,2.3803,2.3733,2.3733,2.3745,2.3857,2.387,2.3879,2.3793,2.3795,2.3796,2.3856,0,2.3639,2.3687,2.3678,2.3725,2.3746,2.3726,2.375,2.3758,2.3757,2.3774,2.3773,2.3793,2.377,2.3775,2.3794,2.3793,2.3825,2.3789,2.3813,2.3814,2.3811,2.389,2.3903,2.396,2.3864,2.3865,2.3866,0,2.3715,2.3729,2.3778,2.3784,2.3793,2.3814,2.383,2.3847,2.3856,2.3853,2.3864,2.3851,2.3878,2.3849,2.3886,2.3862,2.3871,2.3872,2.3874,2.3875,2.3843,2.3892,2.3978,2.3986,2.3878,2.3877,2.3876,0,2.3771,2.3802,2.3835,2.3842,2.3849,2.3865,2.3869,2.3876,2.3887,2.39,2.3907,2.3924,2.3932,2.3945,2.3938,2.3917,2.3976,2.3946,2.3974,2.3974,2.3987,2.3986,2.4074,2.3994,2.3994,2.3994,2.3994,0,2.3838,2.3869,2.3861,2.3881,2.3915,2.3904,2.3937,2.3939,2.3945,2.3965,2.3949,2.3968,2.3957,2.3975,2.3969,2.4,2.4004,2.4003,2.4001,2.4004,2.4004,2.401,2.4005,2.3996,2.3996,2.3995,2.3995,0,2.3906,2.3902,2.3936,2.3941,2.3943,2.3967,2.3971,2.399,2.3988,2.4013,2.4019,2.4015,2.4036,2.4029,2.4051,2.4048,2.4087,2.408,2.4084,2.4082,2.411,2.4108,2.4204,2.4216,2.413,2.4131,2.4131,0,2.3949,2.3972,2.3979,2.3992,2.3997,2.4017,2.4028,2.4019,2.4032,2.4043,2.4061,2.408,2.4094,2.4128,2.4127,2.4144,2.4137,2.417,2.4139,2.4141,2.4136,2.4135,2.4137,2.4175,2.4176,2.4177,2.4178,0,2.4026,2.4023,2.404,2.4056,2.407,2.4083,2.4094,2.4105,2.4096,2.4111,2.4132,2.4143,2.4166,2.4185,2.42,2.4203,2.4189,2.4188,2.4195,2.4198,2.4199,2.4198,2.41,2.4185,2.4185,2.4184,2.4184,2.4183,2.4082,2.4101,2.411,2.4129,2.4136,2.4147,2.4165,2.4165,2.4183,2.42,2.4194,2.4218,2.4226,2.4245,2.425,2.4268,2.4256,2.4266,2.4269,2.4272,2.4275,2.4197,2.4271,2.4271,2.4271,2.4271,2.427,0,2.4157,2.4162,2.418,2.4196,2.4211,2.4197,2.4208,2.4222,2.4243,2.4252,2.4267,2.4291,2.4309,2.431,2.4327,2.4341,2.4335,2.4346,2.4345,2.4345,2.4286,2.4277,2.4351,2.4351,2.4351,2.4351,2.4351,2.4351,2.4198,2.423,2.4228,2.4263,2.4267,2.4291,2.4298,2.4308,2.4315,2.4342,2.4358,2.4358,2.4364,2.4381,2.4397,2.4397,2.4403,2.4417,2.4414,2.4358,2.435,2.4342,2.4334,2.4418,2.4419,2.4472,2.4473,2.4473]},{"header":{"parameterUnit":"m.s-1","parameterCategory":1,"la1":30.2991,"la2":30.254,"lo1":-89.0895,"lo2":-89.0444,"dy":0.0017,"dx":0.0017,"nx":28,"ny":28,"refTime":"2024-02-24T09:00:00:Z","depth":0,"parameterNumber":3,"parameterNumberName":"V-component_of_WINDS"},"data":[0,0,0,0,0,0,0,0,0,0,0,0,0,0,0,0,0,0,0,0,0,0,0,0,0,0,0,0,0,0,0,0,0,0,0,0,0,0,0,0,0,0,0,0,0,0,0,0,0,0,0,0,0,0,0,0,0,0,-1.0077,-1.0078,0,-1.0137,-1.0138,-1.0139,-1.013,-1.0129,-1.0128,-1.0127,-1.0188,-1.0191,-1.0193,0,0,0,0,0,0,0,0,0,0,0,0,0,-0.9955,-0.9957,-1.0077,-1.0078,-1.0078,-1.0137,-1.0138,-1.0139,-1.013,-1.0129,-1.0127,-1.0126,-1.0188,-1.0191,-1.0194,0,0,0,0,0,0,0,0,0,0,0,0,0,-1.0011,-0.9958,-1.0077,-1.0081,-1.0082,-1.0137,-1.0138,-1.0139,-1.013,-1.0129,-1.0127,-1.0126,-1.0187,-1.019,-1.0194,-1.0249,0,0,-1.0206,-1.0208,0,0,0,0,0,0,0,0,-1.0008,-1.0015,-1.008,-1.0081,-1.0082,-1.0124,-1.0118,-1.0176,-1.0131,-1.0112,-1.0127,-1.0125,-1.0168,-1.0174,-1.0188,-1.0251,-1.0254,-1.0206,-1.0209,-1.021,-1.0211,0,0,0,0,0,0,0,-1.0004,-1.0013,-1.0101,-1.0081,-1.0082,-1.008,-1.0087,-1.0129,-1.0148,-1.0113,-1.0113,-1.012,-1.0169,-1.0185,-1.019,-1.0255,-1.0206,-1.021,-1.0212,-1.0214,-1.0367,-1.0369,0,0,0,0,0,0,-0.9999,-1.0009,-1.0099,-1.0103,-1.004,-1.0084,-1.0091,-1.0112,-1.0147,-1.0151,-1.0121,-1.012,-1.0179,-1.0185,-1.0192,-1.0259,-1.021,-1.0214,-1.0216,-1.0366,-1.0368,-1.037,0,0,0,0,0,0,-0.9996,-1.0007,-1.0096,-1.0056,-1.0067,-1.0087,-1.0112,-1.0114,-1.013,-1.0154,-1.0157,-1.0134,-1.0178,-1.0186,-1.0235,-1.0261,-1.0216,-1.0219,-1.0364,-1.0366,-1.0369,-1.0393,0,0,0,0,0,0,-0.9993,-1.0006,-1.0026,-1.0056,-1.0069,-1.0138,-1.0113,-1.0117,-1.0137,-1.0135,-1.0166,-1.017,-1.0177,-1.0229,-1.0239,-1.0265,-1.0222,-1.0361,-1.0365,-1.0368,-1.039,-1.0396,-1.0401,0,0,0,0,0,-0.9988,-1.003,-1.0027,-1.0038,-1.0096,-1.014,-1.0147,-1.0155,-1.0139,-1.016,-1.0175,-1.0169,-1.0256,-1.0234,-1.0245,-1.0273,-1.036,-1.0364,-1.0368,-1.0387,-1.0395,-1.0401,0,0,0,0,0,0,-1.0002,-1.0034,-1.0031,-1.0085,-1.011,-1.0138,-1.0165,-1.0162,-1.0192,-1.0189,-1.0197,-1.0204,-1.0254,-1.0268,-1.0243,-1.0328,-1.0306,-1.0312,-1.0317,-1.0325,-1.033,-1.0326,-1.0226,0,0,0,0,0,-1.0012,-1.0045,-1.0071,-1.0115,-1.0128,-1.0145,-1.0164,-1.0168,-1.0194,-1.0204,-1.0223,-1.0249,-1.0282,-1.0304,-1.0336,-1.0392,-1.0399,-1.0417,-1.0422,-1.0427,-1.0432,-1.0464,-1.0473,-1.0383,-1.0383,-1.0383,0,0,-1.0031,-1.0053,-1.0073,-1.0119,-1.0139,-1.0173,-1.0153,-1.019,-1.0216,-1.021,-1.0257,-1.0272,-1.0301,-1.0354,-1.0378,-1.0368,-1.0459,-1.0432,-1.0435,-1.0438,-1.0469,-1.0478,-1.0485,-1.0385,-1.0385,-1.0384,0,0,-1.0085,-1.0104,-1.0144,-1.0165,-1.0195,-1.0206,-1.0215,-1.0245,-1.0255,-1.0302,-1.0299,-1.033,-1.0387,-1.0408,-1.0426,-1.049,-1.0485,-1.05,-1.053,-1.0561,-1.0568,-1.0574,-1.0598,-1.0606,-1.0505,-1.0505,-1.0505,0,-1.0106,-1.0157,-1.0165,-1.0203,-1.0223,-1.022,-1.026,-1.028,-1.0319,-1.0334,-1.0321,-1.0394,-1.0413,-1.0472,-1.0487,-1.0502,-1.0514,-1.0496,-1.0566,-1.0573,-1.0579,-1.0601,-1.061,-1.0507,-1.0507,-1.0506,-1.0506,0,-1.0182,-1.0218,-1.0246,-1.0285,-1.0309,-1.0348,-1.0362,-1.0385,-1.0387,-1.0399,-1.0448,-1.0472,-1.0509,-1.0523,-1.0525,-1.0582,-1.0575,-1.0564,-1.0542,-1.0589,-1.061,-1.0619,-1.0509,-1.0509,-1.0508,-1.0508,0,0,-1.0246,-1.0289,-1.0299,-1.0317,-1.0351,-1.0379,-1.0419,-1.0455,-1.0476,-1.0503,-1.0537,-1.0586,-1.0577,-1.0598,-1.0602,-1.063,-1.068,-1.0616,-1.0617,-1.0628,-1.0746,-1.0754,-1.0764,-1.0677,-1.0678,-1.068,-1.0743,0,-1.0303,-1.0373,-1.0381,-1.0443,-1.0478,-1.0475,-1.051,-1.0534,-1.0547,-1.0578,-1.0592,-1.0628,-1.0612,-1.0625,-1.0652,-1.0668,-1.0704,-1.0663,-1.0709,-1.0711,-1.0703,-1.0775,-1.0783,-1.0842,-1.0752,-1.0753,-1.0754,0,-1.0379,-1.041,-1.0476,-1.0506,-1.0521,-1.0552,-1.0587,-1.0616,-1.0645,-1.0652,-1.0676,-1.0678,-1.0719,-1.0695,-1.0753,-1.0725,-1.0745,-1.0755,-1.0758,-1.0763,-1.0736,-1.0783,-1.0861,-1.087,-1.0767,-1.0766,-1.0765,0,-1.0421,-1.0478,-1.0525,-1.0541,-1.0577,-1.0599,-1.0615,-1.0642,-1.0664,-1.0695,-1.071,-1.0744,-1.0764,-1.0791,-1.0802,-1.0783,-1.086,-1.0836,-1.0868,-1.0868,-1.0884,-1.0883,-1.0968,-1.0896,-1.0895,-1.0895,-1.0895,0,-1.0485,-1.0525,-1.0544,-1.0573,-1.0619,-1.0629,-1.0674,-1.0689,-1.0714,-1.0746,-1.0746,-1.0776,-1.0789,-1.0821,-1.083,-1.0878,-1.0886,-1.0894,-1.0896,-1.0894,-1.0893,-1.0907,-1.0904,-1.0898,-1.0897,-1.0897,-1.0896,0,-1.0539,-1.0553,-1.0604,-1.0635,-1.0644,-1.0676,-1.0703,-1.0731,-1.0744,-1.0785,-1.0795,-1.0815,-1.0854,-1.0868,-1.0914,-1.0921,-1.0976,-1.0974,-1.0966,-1.0967,-1.0998,-1.0996,-1.1096,-1.111,-1.1027,-1.1028,-1.1028,0,-1.0579,-1.061,-1.0644,-1.0666,-1.0683,-1.0718,-1.0741,-1.0752,-1.0776,-1.0811,-1.0836,-1.0874,-1.0906,-1.0968,-1.0987,-1.1023,-1.1022,-1.1055,-1.1028,-1.1026,-1.1024,-1.1023,-1.1026,-1.106,-1.1061,-1.1062,-1.1062,0,-1.0649,-1.0655,-1.0687,-1.0723,-1.0751,-1.0779,-1.0807,-1.0825,-1.084,-1.0867,-1.0907,-1.0931,-1.0979,-1.1018,-1.1055,-1.1072,-1.107,-1.1071,-1.108,-1.1079,-1.1074,-1.1079,-1.0981,-1.1069,-1.1068,-1.1067,-1.1067,-1.1067,-1.0698,-1.0726,-1.0755,-1.0792,-1.0814,-1.0841,-1.0869,-1.0886,-1.0919,-1.096,-1.0964,-1.1007,-1.1036,-1.1086,-1.1105,-1.1139,-1.113,-1.1143,-1.1147,-1.1151,-1.1153,-1.1068,-1.1146,-1.1146,-1.1145,-1.1145,-1.1145,0,-1.0769,-1.0788,-1.0822,-1.0861,-1.089,-1.0886,-1.0917,-1.0942,-1.098,-1.1007,-1.1038,-1.1085,-1.1122,-1.1145,-1.1183,-1.1206,-1.1206,-1.1216,-1.1215,-1.1219,-1.1159,-1.1147,-1.1215,-1.1215,-1.1215,-1.1215,-1.1215,-1.1215,-1.081,-1.0858,-1.0867,-1.0927,-1.0945,-1.0988,-1.1006,-1.103,-1.1052,-1.1104,-1.1136,-1.115,-1.1176,-1.1216,-1.1251,-1.1256,-1.1271,-1.1281,-1.1286,-1.123,-1.1223,-1.1216,-1.1205,-1.1284,-1.1284,-1.1344,-1.1344,-1.1345]}]]